Regional Weather Roundup
Issued by NWS

Home | Current Version | Previous Version | Text Only | Print | Product List | Glossary Off
Versions: 1 2 3 4 5 6 7 8 9 10 11 12 13 14 15 16 17 18 19 20 21 22 23 24 25 26 27 28 29 30 31 32 33 34 35 36 37 38 39 40 41 42 43 44 45 46 47 48 49 50

000
ASUS43 KTOP 281759
RWRKS

WEATHER ROUNDUP FOR KANSAS
NATIONAL WEATHER SERVICE GOODLAND KS
1200 PM CST SAT FEB 28 2015

NOTE:  "FAIR" INDICATES FEW OR NO CLOUDS BELOW 12,000 FEET WITH NO
SIGNIFICANT WEATHER AND/OR OBSTRUCTIONS TO VISIBILITY.

KSZ001>006-013>018-027>032-041>047-281900-
NORTHWEST KANSAS

CITY           SKY/WX    TMP DP  RH WIND       PRES   REMARKS
GOODLAND       LGT SNOW  16  10  77 S10       30.12F WCI   4
6HR MIN TEMP:   8; 6HR MAX TEMP:  16; 6HR PCP: TRACE;

HAYS           CLOUDY    16   5  62 S13       30.31F WCI   2
HILL CITY      LGT SNOW  18  12  77 S10       30.29S WCI   6
6HR MIN TEMP:  13; 6HR MAX TEMP:  18; 6HR PCP:  0.02;

RUSSELL        LGT SNOW  17  12  80 SE12      30.32F WCI   4
6HR MIN TEMP:  14; 6HR MAX TEMP:  17; 6HR PCP:  0.01;

$$

KSZ061>065-074>080-084>089-281900-
SOUTHWEST KANSAS

CITY           SKY/WX    TMP DP  RH WIND       PRES   REMARKS
DODGE CITY     CLOUDY    16   9  74 S13       30.25S WCI   2
6HR MIN TEMP:  11; 6HR MAX TEMP:  16; 6HR PCP: TRACE;

ELKHART          N/A     19  10  68 S17         N/A  WCI   4
GARDEN CITY    CLOUDY    16  12  84 S14       30.18F WCI   2
6HR MIN TEMP:  10; 6HR MAX TEMP:  17; 6HR PCP: TRACE;

GREAT BEND     PTSUNNY   18   9  68 SE5       30.34F
LIBERAL        CLOUDY    19  10  68 S15       30.21F WCI   5
$$

KSZ066>073-081>083-090>101-281900-
SOUTHEAST KANSAS

CITY           SKY/WX    TMP DP  RH WIND       PRES   REMARKS
CHANUTE        SNOW      22  19  89 E7        30.46F VSB 1/2
6HR MIN TEMP:  20; 6HR MAX TEMP:  23; 6HR PCP:  0.12;

COFFEYVILLE    SNOW      23  21  92 E3        30.47F VSB 1/2
6HR MIN TEMP:  20; 6HR MAX TEMP:  24; 6HR PCP:  0.12;

HUTCHINSON     SNOW      19  14  81 SE12      30.38F VSB 1/2 WCI   7
6HR MIN TEMP:  16; 6HR MAX TEMP:  19; 6HR PCP: TRACE;

MEDICINE LODGE   N/A     19  15  84 SE6       30.37F
NEWTON         CLOUDY    19  12  73 SE8       30.40F
PARSONS        LGT SNOW  23  20  88 VRB3      30.47F VSB 3/4
6HR MIN TEMP:  21; 6HR MAX TEMP:  24; 6HR PCP: TRACE;

WICHITA INTL   SNOW      20  16  84 SE8       30.40F VSB 1/2
6HR MIN TEMP:  17; 6HR MAX TEMP:  20; 6HR PCP:  0.33;

WICHITA JABRA  LGT SNOW  19  16  88 SE7       30.40F VSB 3/4
6HR MIN TEMP:  16; 6HR MAX TEMP:  20; 6HR PCP: TRACE;

WICHITA MCCONL LGT SNOW  19  16  86 SE5       30.40F VSB 3/4
WINFIELD       LGT SNOW  21  18  88 SE8       30.42F VSB 3/4
6HR MIN TEMP:  17; 6HR MAX TEMP:  21; 6HR PCP:  0.18;

$$

KSZ007>012-019>026-033>040-048>060-102>105-281900-
NORTHEAST KANSAS

CITY           SKY/WX    TMP DP  RH WIND       PRES   REMARKS
CONCORDIA      LGT SNOW  19  15  84 S9        30.39F FOG
6HR MIN TEMP:  12; 6HR MAX TEMP:  19; 6HR PCP:  0.06;

EMPORIA        SNOW      20  17  88 SE7       30.43S VSB 1/4
6HR MIN TEMP:  17; 6HR MAX TEMP:  20; 6HR PCP:  0.08;

LAWRENCE       LGT SNOW  21  16  81 SE8       30.48F
6HR MIN TEMP:  16; 6HR MAX TEMP:  22; 6HR PCP:  0.02;

MANHATTAN      LGT SNOW  21  17  84 S5        30.44F FOG
6HR MIN TEMP:  14; 6HR MAX TEMP:  21; 6HR PCP:  0.05;

OLATHE IND     LGT SNOW  20  16  84 E7        30.47F VSB 1
6HR MIN TEMP:  17; 6HR MAX TEMP:  20; 6HR PCP:  0.02;

OLATHE EXE     LGT SNOW  20  17  88 SE7       30.46F VSB 3/4
6HR MIN TEMP:  17; 6HR MAX TEMP:  20; 6HR PCP:  0.01;

SALINA         LGT SNOW  20  15  81 SE6       30.42S
6HR MIN TEMP:  16; 6HR MAX TEMP:  20; 6HR PCP: TRACE;

TOPEKA BILLARD LGT SNOW  21  16  81 SE9       30.48F VSB 1
6HR MIN TEMP:  15; 6HR MAX TEMP:  22; 6HR PCP:  0.08;

TOPEKA FORBES  LGT SNOW  22  16  78 SE9       30.46S
6HR MIN TEMP:  17; 6HR MAX TEMP:  22; 6HR PCP:  0.04;

$$



USA.gov is the U.S. government's official web portal to all federal, state and local government web resources and services.